This demonstration page uses our WeatherBlox Daily Observations layout. Learn more.

Left ArrowRight Arrow

Hourly Observations for September 11, 2019

Temp ( °F °C ) Dew Point ( °F °C ) Humidity (%) Winds ( mph kmh ) Pressure ( in mb ) Visibility ( mi km ) Precip ( " mm )
12:53 am 00:53 Clear 74 23.3 70 21.1 88 88 WNW 3 6 30.22 1023 10 16 0.00 0.00
1:53 am 01:53 Clear 75 23.9 69 20.6 82 82 Calm 30.22 1023 10 16 0.00 0.00
2:53 am 02:53 Clear 72 22.2 70 21.1 94 94 Calm 30.21 1023 8 13 0.00 0.00
3:53 am 03:53 Clear with Mist and Fog 71 21.7 69 20.6 94 94 Calm 30.20 1023 5 8 0.00 0.00
4:53 am 04:53 Clear 70 21.1 69 20.6 97 97 Calm 30.20 1023 8 13 0.00 0.00
5:53 am 05:53 Clear 71 21.7 68 20 90 90 Calm 30.22 1024 10 16 0.00 0.00
6:53 am 06:53 Clear 69 20.6 67 19.4 93 93 Calm 30.25 1024 7 11 0.00 0.00
7:53 am 07:53 Sunny 71 21.7 68 20 90 90 Calm 30.26 1025 9 14 0.00 0.00
8:53 am 08:53 Sunny 75 23.9 70 21.1 84 84 Calm 30.28 1025 10 16 0.00 0.00
9:53 am 09:53 Sunny 79 26.1 70 21.1 74 74 Calm 30.28 1025 10 16 0.00 0.00
10:53 am 10:53 Sunny 83 28.3 70 21.1 65 65 VRB 3 6 30.27 1025 10 16 0.00 0.00
11:53 am 11:53 Sunny 86 30 69 20.6 57 57 SSW 5 7 30.26 1025 10 16 0.00 0.00
12:53 pm 12:53 Sunny 88 31.1 69 20.6 54 54 VRB 5 7 30.24 1024 10 16 0.00 0.00
1:53 pm 13:53 Sunny 89 31.7 67 19.4 48 48 Calm 30.22 1023 10 16 0.00 0.00
2:53 pm 14:53 Sunny 91 32.8 66 18.9 44 44 WNW 6 9 30.18 1022 10 16 0.00 0.00
3:53 pm 15:53 Mostly Cloudy 93 33.9 66 18.9 41 41 N 6 9 30.15 1021 10 16 0.00 0.00
4:53 pm 16:53 Mostly Sunny 93 33.9 63 17.2 37 37 E 6 9 30.14 1021 10 16 0.00 0.00
5:53 pm 17:53 Sunny 94 34.4 62 16.7 35 35 N 5 7 30.12 1020 10 16 0.00 0.00
6:53 pm 18:53 Sunny 92 33.3 62 16.7 37 37 W 3 6 30.11 1020 10 16 0.00 0.00
7:53 pm 19:53 Clear 85 29.4 67 19.4 55 55 Calm 30.11 1020 10 16 0.00 0.00
8:53 pm 20:53 Clear 82 27.8 69 20.6 65 65 Calm 30.12 1020 10 16 0.00 0.00
9:53 pm 21:53 Clear 78 25.6 69 20.6 74 74 Calm 30.13 1020 10 16 0.00 0.00
10:53 pm 22:53 Clear 77 25 70 21.1 79 79 Calm 30.14 1021 10 16 0.00 0.00
11:53 pm 23:53 Clear 74 23.3 69 20.6 85 85 Calm 30.14 1021 10 16 0.00 0.00

Powered by AerisWeather